EW2690 Weather Reports


Display with metric or nautical units.
time (UTC)temp
F
wind
direction
speed
MPH
gust
MPH
rain 1hr
in
rain 24hr
in
rain mn
in
humidity
%
barometer
mb
20260507210352 56 281 9.0 19.0 0.00 0.00 0.00 53 1021.3
20260507210025 56 253 9.0 19.0 0.00 0.00 0.00 52 1021.4
20260507203025 56 262 9.0 17.0 0.00 0.00 0.00 53 1021.3
20260507200424 56 319 10.0 16.0 0.00 0.00 0.00 49 1021.6
20260507200018 56 304 7.0 16.0 0.00 0.00 0.00 49 1021.7
20260507193018 56 339 7.0 18.0 0.00 0.00 0.00 51 1021.9
20260507190332 56 318 6.0 16.0 0.00 0.00 0.00 48 1022.2
20260507190035 56 350 9.0 16.0 0.00 0.00 0.00 51 1022.1
20260507183009 56 304 8.0 16.0 0.00 0.00 0.00 52 1022.2
20260507180354 56 314 8.0 16.0 0.00 0.00 0.00 52 1022.0
20260507180052 56 328 5.0 15.0 0.00 0.00 0.00 52 1022.0
20260507173048 56 293 5.0 14.0 0.00 0.00 0.00 52 1022.3
20260507170325 57 313 5.0 13.0 0.00 0.00 0.00 53 1022.2
20260507170018 57 348 6.0 13.0 0.00 0.00 0.00 49 1022.2
20260507163123 57 324 8.0 16.0 0.00 0.00 0.00 51 1022.3
20260507160312 57 344 5.0 11.0 0.00 0.00 0.00 53 1022.4
20260507160036 57 289 5.0 9.0 0.00 0.00 0.00 55 1022.4
20260507153032 56 263 7.0 12.0 0.00 0.00 0.00 54 1022.5
20260507150410 56 304 8.0 11.0 0.00 0.00 0.00 58 1022.5
20260507150328 56 304 8.0 11.0 0.00 0.00 0.00 58 1022.5
20260507150030 56 315 4.0 11.0 0.00 0.00 0.00 59 1022.5
20260507143025 55 296 5.0 10.0 0.00 0.00 0.00 58 1022.4
20260507140317 55 287 5.0 10.0 0.00 0.00 0.00 64 1022.7
20260507140056 54 306 5.0 9.0 0.00 0.00 0.00 67 1022.7
20260507133050 53 308 4.0 9.0 0.00 0.00 0.00 71 1022.8
20260507130343 51 261 3.0 8.0 0.00 0.00 0.00 75 1022.8
20260507130014 51 288 4.0 8.0 0.00 0.00 0.00 75 1022.9
20260507123055 48 267 2.0 9.0 0.00 0.00 0.00 78 1022.8
20260507120416 46 252 2.0 5.0 0.00 0.00 0.00 80 1022.8
20260507120033 46 250 3.0 6.0 0.00 0.00 0.00 81 1022.8
20260507113010 45 209 2.0 5.0 0.00 0.00 0.00 83 1022.7
20260507110321 44 218 2.0 5.0 0.00 0.00 0.00 83 1022.5
20260507110017 44 215 2.0 5.0 0.00 0.00 0.00 83 1022.4
20260507103041 44 205 2.0 4.0 0.00 0.02 0.00 83 1022.2
20260507100400 43 243 3.0 6.0 0.00 0.02 0.00 83 1022.2
20260507100040 43 223 3.0 6.0 0.00 0.02 0.00 83 1022.2
20260507093015 42 229 3.0 6.0 0.00 0.05 0.00 84 1022.2
20260507090352 42 217 2.0 4.0 0.00 0.05 0.00 83 1022.2
20260507090053 42 221 1.0 6.0 0.00 0.05 0.00 82 1022.3
20260507083033 42 213 1.0 8.0 0.00 0.10 0.00 82 1022.3
20260507080352 42 196 2.0 5.0 0.00 0.10 0.00 83 1022.4
20260507080310 42 196 2.0 5.0 0.00 0.10 0.00 83 1022.4
20260507080022 42 178 2.0 5.0 0.00 0.10 0.00 83 1022.4
20260507073046 41 189 2.0 4.0 0.00 0.13 0.00 85 1022.5
20260507070320 40 153 2.0 5.0 0.00 0.13 0.00 90 1022.6
20260507070014 39 180 2.0 3.0 0.00 0.13 0.00 90 1022.7
20260507063014 39 171 0.0 1.0 0.00 0.15 0.00 90 1022.9
20260507060328 40 173 1.0 2.0 0.00 0.15 0.00 88 1023.1
20260507060030 40 173 1.0 2.0 0.00 0.15 0.00 88 1023.1
20260507053046 41 140 1.0 2.0 0.00 0.18 0.00 89 1023.3
20260507050408 41 140 0.0 1.0 0.00 0.18 0.00 92 1023.6
20260507050022 41 140 0.0 1.0 0.00 0.18 0.00 92 1023.6
20260507043125 41 140 0.0 0.0 0.00 0.23 0.00 93 1023.6
20260507040315 41 140 0.0 0.0 0.00 0.23 0.00 93 1023.9
20260507040043 41 140 0.0 0.0 0.00 0.23 0.00 93 1023.9
20260507033130 41 84 0.0 0.0 0.00 0.36 0.23 93 1024.1
20260507030330 42 84 0.0 0.0 0.00 0.36 0.23 92 1024.1
20260507030029 42 84 0.0 0.0 0.00 0.36 0.23 92 1024.1
20260507023103 42 84 0.0 0.0 0.00 0.49 0.23 92 1024.0
20260507020321 43 84 0.0 0.0 0.00 0.49 0.23 90 1024.0
20260507020022 43 84 0.0 0.0 0.00 0.49 0.23 90 1023.9
20260507013043 44 84 0.0 0.0 0.00 0.55 0.23 86 1024.0
20260507010317 45 84 0.0 0.0 0.00 0.55 0.23 83 1023.9
20260507010013 45 84 0.0 0.0 0.00 0.55 0.23 83 1024.0
20260507003039 46 84 0.0 0.0 0.00 0.59 0.23 77 1024.1
20260507000351 47 84 0.0 0.0 0.00 0.59 0.23 75 1023.9
20260507000033 47 84 0.0 1.0 0.00 0.59 0.23 76 1023.8
20260506233052 47 84 1.0 3.0 0.00 0.90 0.23 69 1023.5
20260506233010 47 84 1.0 3.0 0.00 0.90 0.23 69 1023.5
20260506230309 48 345 1.0 2.0 0.00 0.90 0.23 70 1023.5
20260506230029 48 345 1.0 2.0 0.00 0.90 0.23 70 1023.5
20260506223029 48 355 2.0 6.0 0.00 1.11 0.23 70 1023.6
20260506220347 49 346 4.0 6.0 0.00 1.11 0.23 67 1023.1
20260506220047 49 355 2.0 5.0 0.00 1.11 0.23 67 1023.1
20260506213132 50 335 3.0 8.0 0.00 1.26 0.23 67 1023.0